DECAYED

STARLINK-5081, 55759 (Decayed)

Orbit data source: Space-Track

STARLINK-5081, 55759 was a payload satellite owned by SpaceX/Seattle (US) in LEO that was launched on Fri, 03 Mar 2023 UTC via an FALCON 9 launch vehicle from the Air Force Western Test Range (AFWTR). Payload-class satellites include a variety of spacecraft equipped with specific instruments for various scientific and technological missions. These include communications satellites like Starlink; space stations such as the ISS; scientific satellites like the Hubble; Earth observation satellites from companies like Planet Labs, Umbra, and HawkEye 360; GPS; miniature CubeSats for education and research; and military/defense satellites.

Not visible in the next 10 days
Identifier
55759, 2023-028U
Orbit
Decayed
Country
Flag of USUS
Related business
Manufacturer
SpaceX/Seattle
Mission
Decayed Commercial Communications
Bus & Motor
STARLINK, Unknown motor
Mass
305 kg wet, ~290 kg dry
Launch date (UTC)
2023-03-03 (3 years ago)
Launch vehicle
FALCON 9
Launch site
Air Force Western Test Range (AFWTR)
Object type
Payload
Rocket body
Debris
Shape & HBR
Box + 1 Pan, 10.1 m
Radar Cross Section
11.087 m², Large (>1 m²)

Expand to show TLE details & history
Last TLE update: 1 year ago

TLE from 1 year ago
0 STARLINK-5081
1 55759U 23028U   25073.89378831  .04457374  42992-5  98664-3 0  9991
2 55759  69.9866  37.1601 0007969 215.6316 203.0991 16.30060619112965
Epoch: 2025-03-14T21:27Z
TLE epoch observation values (Epoch: 2025-03-14T21:27:03.309Z)
Latitude
53.52385°
Longitude
-68.02052°
Altitude
205.389 km
Speed
7.786 km/s
True Right ascension
04h 25m 57s
True Declination
53° 20' 44"
Sunlit
Object was in daylight at epoch
Visualization orbit readout
Latitude
Unknown
Longitude
Unknown
Altitude
Unknown
Speed
Unknown
Apparent Right ascension
Unknown
Apparent Declination
Unknown
Sunlit
N/A
Visualization observer readout
Local Sidereal Time
00:25:05
Azimuth
Unknown
Elevation
Unknown
Doppler factor
Unknown
Orbital elements
Apogee altitude
195.442 km
Perigee altitude
184.973 km
Semi-major axis
6,568.345 km
Eccentricity
0.0008
Inclination
69.9866°
RAAN
37.1601°
Arg. of periapsis
215.6316°
True anomaly
203.06331°
Mean anomaly
203.0991°
Eccentric anomaly
203.0812°
Mean motion
4.07717 °/min
Orbital period
88.3 mins
BSTAR
0.00098664
Loading maneuver chart data...
Computing Atmospheric mass density...
Loading historical data...
Loading historical data...
Loading historical data...
Loading historical data...
Loading historical data...
Loading historical data...
Loading historical data...

Documentation

Showing up to 5 results
|